GSAT-15 1 41028U 15065A 21063.12114385 -.00000268 00000-0 00000+0 0 9995 2 41028 0.0181 159.8737 0001202 218.3098 280.9991 1.00272453 19498 BADR-7 (ARABSAT-6B) 1 41029U 15065B 21062.80257501 .00000135 00000-0 00000-0 0 9991 2 41029 0.0568 259.4023 0003715 359.5544 217.7412 1.00266854 19403 ARIANE 5 R/B 1 41030U 15065C 21062.63927988 .00001334 00000-0 39006-3 0 9990 2 41030 4.5122 77.3889 7210639 35.5669 355.9384 2.37052328 45174 ARIANE 5 DEB [SYLDA] 1 41031U 15065D 21063.12791329 .00015784 00000-0 25632-2 0 9997 2 41031 4.2630 123.7527 6257828 312.9270 9.2707 3.67349737 58721